Погода в Большом Самовце

Россия / Воронежская область     51°54′28″N   40°28′22″E
темп.,
°C
ветер,
м/с
пор.,
м/с
влажн.,
%
обл.,
%
осадки,
мм/ч
давл.,
гПа
погр.,
м
11 мая, вт
вт1100:00+10ссв91893100 0.0 1015522
03:00+10ссв92192100 0.0 1014555
06:00+12св81689100 0.0 1015903
09:00+10в61086100 0.2 1019820
12:00+13вюв7105751 0.0 10211644
15:00+14вюв8115510 0.0 10221930
18:00+12вюв6117028 0.0 10231165
21:00+7вюв35918 0.0 102578
12 мая, ср
ср1200:00+6в47937 0.0 1026134
03:00+6всв379097 0.0 1025139
06:00+7св4986100 0.0 1024238
09:00+13всв4669100 0.0 1022605
12:00+16в3456100 0.0 10201616
15:00+17в565468 0.1 10191814
18:00+15в596992 0.2 1019414
21:00+11в5138783 0.2 1019292
13 мая, чт
чт1300:00+12вюв5139272 0.0 1019302
03:00+10в379551 0.0 1018136
06:00+11всв259192 0.0 1017129
09:00+15в348951 0.4 1016394
12:00+17юв347885 1.1 1016763
15:00+20юв346512 1.9 10161130
18:00+19юв35720 0.8 1016292
21:00+15юв33826 0.9 101726
14 мая, пт
пт1400:00+14вюв3488100 0.0 101757
03:00+14вюв4992100 0.0 1017180
06:00+15вюв41091100 0.0 1017238
09:00+20юв597210 0.0 1016507
12:00+24юв685753 0.0 10161241
15:00+26юв685394 0.0 10151402
18:00+24юв6117079 0.0 1013661
21:00+18юв4138722 0.0 1013258
15 мая, сб
сб1500:00+16юв36886 0.0 101290
03:00+15юв4108847 0.0 1012186
06:00+15юв5127691 0.0 1012272
09:00+20ю68716 0.3 1012535
12:00+24юв6766100 0.0 1012703
15:00+20ю51084100 6.6 1013462
18:00+21ю58765 1.8 1012383
21:00+17юз33854 2.7 101227